Résultats

Ronde des Vignes - 14KM. Édition 2012.

14 Km
04/11/2012 à 00:00:00 - ()
1017 arrivant(e)s.


 
Les autres classements de cet évènement




Place▲ Temps Dossard Nom Prenom Categ #Categ Sexe #Sexe ClubVit Moy Diplôme Partager
1 00:47:37 181 DEWILDE ANTOINE SEM 1 M 1 MIZUNO9.90
2 00:47:37 534 BRUNERIE CHRISTOPHE SEM 2 M 2 PASSION COURSE9.90
3 00:49:07 1260 RAMOUSSIN BRUNO V1M 1 M 3 ENDURANCE SHOP17.47
4 00:49:17 865 OBE JEAN-MICHEL V1M 2 M 4 POWERSPORT/CAP NATURE17.41
5 00:49:31 914 QUERIEL JEREMIE SEM 3 M 5 POWERSPORT/CAP NATURE17.33
6 00:50:07 946 ROY NOEL SEM 4 M 6 VITROLLES TRIATHLON9.90
7 00:50:13 25 CELLE NICOLAS SEM 5 M 7 CLES GARDANNE9.90
8 00:50:43 991 TASLENT AZOUAOU SEM 6 M 8 CEF MARATHONIEN16.92
9 00:51:19 27 YVARS BORIS V1M 3 M 9 USC SEPTEMES16.72
10 00:51:22 873 PALA LAURENT SEM 7 M 10 VGA COMPIEGNE16.70
11 00:51:29 1247 LAROQUE THIERRY SEM 8 M 11 GEM TRI ATHLE16.67
12 00:51:43 352 PIEROTTI ALEX V1M 4 M 12 OCC CABRIES CALAS16.59
13 00:52:02 600 DAVID JULIAN SEM 9 M 13 SARDINES TRIATHLON16.49
14 00:52:08 395 BOUIX JULIEN SEM 10 M 14 16.46
15 00:52:20 703 GRENET ANTHONY ESM 1 M 15 MARSEILLE VTT PASSION16.39
16 00:52:28 917 RAHALI HOSNI V1M 5 M 16 RTM16.35
17 00:52:43 926 REYNAUD CHRISTOPHE SEM 11 M 17 MASSILIA TRIATHLON16.28
18 00:53:17 950 RULFO STEPHANE V1M 6 M 18 CAPGARONNE9.90
19 00:53:36 15 DE-CHAVIGNY CHRISTOPHE V1M 7 M 19 COURIR A MEYREUIL9.90
20 00:53:44 715 HAMRI MONGI V1M 8 M 20 MASSILIA TRIATHLON15.97
21 00:53:49 404 FLAGEUL PIERRE SEM 12 M 21 CSA BMPM15.94
22 00:54:05 16 ARWIAUD ERIC V1M 9 M 22 15.86
23 00:54:09 1241 HAMDANI AFIF SEM 13 M 23 USTM JOGGING15.84
24 00:54:35 1220 BONDUE MAXIME SEM 14 M 24 15.72
25 00:54:45 495 BELFY ARNAUD SEM 15 M 25 CE STMICROELECTRONICS15.67
26 00:54:46 588 CUCURULO PAUL SEM 16 M 26 15.67
27 00:54:47 321 CASTEL LAURENT SEM 17 M 27 15.66
28 00:54:47 760 LE-BONHOMME GILLES SEM 18 M 28 15.66
29 00:54:48 549 CASORLA GUY V1M 10 M 29 USTM JOGGING15.66
30 00:55:06 936 RODGERS PATRICK V1M 11 M 30 CE STMICROELECTRONICS15.57
31 00:55:18 306 RINALDI ENZO ESM 2 M 31 SCO STE MARGUERITE MARSEILLE15.52
32 00:55:35 1221 BONNARD CHRISTOPHE SEM 19 M 32 OM ATHLETISME15.44
33 00:55:38 222 DAMMANN FABRICE V1M 12 M 33 15.42
34 00:55:43 504 BLAIN PHILIPPE V1M 13 M 34 SARDINES TRIATHLON15.40
35 00:56:04 499 BENGHOMARI ALI V1M 14 M 35 AC MIRAMAS15.30
36 00:56:08 1200 GIORDANO THIERRY V1M 15 M 36 15.29
37 00:56:12 1245 JEBLI KARIM JUM 1 M 37 USTM JOGGING15.27
38 00:56:14 930 RINGEISSEN JACQUES V2M 1 M 38 CE DASSAULT ISTRES15.26
39 00:56:18 1170 OHANESSIAN JEREMY ESM 3 M 39 15.24
40 00:56:20 1169 BEAUMOND GUILLAUME ESM 4 M 40 15.23
41 00:56:24 305 RINALDI DIDIER V2M 2 M 41 SCO STE MARGUERITE MARSEILLE15.21
42 00:56:36 657 FISCHER YOANN V1M 16 M 42 CLES GARDANNE15.16
43 00:56:41 1 LE-BONHOMME ERIC SEM 20 M 43 15.14
44 00:57:01 541 CALATRABA LIONEL SEM 21 M 44 USTM JOGGING9.90
45 00:57:03 59 BEZY DENIS V1M 17 M 45 9.90
46 00:57:03 179 GHARBI RAFIG SEM 22 M 46 9.90
47 00:57:04 1246 LAIMECHE SAMIR SEM 23 M 47 USTM JOGGING9.90
48 00:57:06 420 LUISETTI BRUNO SEM 24 M 48 9.90
49 00:57:07 1236 FURSTOS SYLVAIN V1M 18 M 49 SCO STE MARGUERITE MARSEILLE9.90
50 00:57:25 308 VULLO THOMAS ESM 5 M 50 MJC PLAN DE CUQUES14.94
51 00:57:33 501 BENLHARBI HAMID V1M 19 M 51 14.91
52 00:57:35 957 SANCHEZ DIDIER SEM 25 M 52 BSSA14.90
53 00:57:53 238 HUCY GILLES V1M 20 M 53 SCO STE MARGUERITE MARSEILLE14.82
54 00:57:57 13 MADI CAMEL V2M 3 M 54 MAIRIE AUBAGNE14.81
55 00:58:02 132 EYCHENNE JEAN-MICHEL V1M 21 M 55 14.78
56 00:58:08 270 AQUE SEBASTIEN SEM 26 M 56 LES FOULEES DU LORIOT14.76
57 00:58:20 276 HAMADI M'AHMED V2M 4 M 57 SCPAM14.71
58 00:58:24 481 BAILLY STEPHANE SEM 27 M 58 14.69
59 00:58:33 262 ROMANO LAURENT V1M 22 M 59 SARDINES TRIATHLON14.65
60 00:58:33 505 BLAIN VALERIE V1F 1 F 1 SARDINES TRIATHLON14.65
61 00:58:34 856 MOUILLET STEPHANE SEM 28 M 60 CSM LA SEYNE14.65
62 00:58:43 478 BAERT FABIEN SEM 29 M 61 14.61
63 00:58:46 1249 LEPAGE PATICK V1M 23 M 62 14.60
64 00:58:49 412 CRAMBES HERVE V1M 24 M 63 14.59
65 00:58:53 7 CIANO PASCAL V3M 1 M 64 MARSEILLE TRAIL CLUB14.57
66 00:58:57 897 PLANCHON ROGER V3M 2 M 65 ACF CASSIS14.55
67 00:59:00 943 ROULPH PATRICK V2M 5 M 66 AS CARNOUX JOGGING14.54
68 00:59:16 23 FANIA HERVE SEM 30 M 67 PENITENTS ENDURANCE14.48
69 00:59:17 160 CHABANE AMINA V1F 2 F 2 MASSILIA MARATHON14.47
70 00:59:17 385 DAUMAS JEREMY SEM 31 M 68 14.47
71 00:59:20 152 HANNA PIERRE V1M 25 M 69 PREF ASS14.46
72 00:59:25 623 DI-SAVINO PHILIPPE V1M 26 M 70 14.44
73 00:59:34 373 ROBIDEZ BERTRAND V1M 27 M 71 14.40
74 00:59:35 689 GIRAUD DENIS V1M 28 M 72 GROUPE DES EAUX DE MARSEILLE14.40
75 00:59:42 383 ADAM MARC V1M 29 M 73 14.37
76 00:59:45 788 LIANDRAT PAULIN ESM 6 M 74 VITROLLES TRIATHLON14.36
77 00:59:46 316 FABBRI OLIVIER SEM 32 M 75 14.36
78 00:59:49 571 COCCI JEAN-MARC V1M 30 M 76 APM14.34
79 00:59:50 556 CHAUVIN HERVE V2M 6 M 77 14.34
80 00:59:52 452 ABBES PATRICK V1M 31 M 78 14.33
81 00:59:54 301 DANTI FRANCOIS V1M 32 M 79 SCO STE MARGUERITE MARSEILLE14.32
82 01:00:05 508 BOANICHE JULIEN ESM 7 M 80 14.28
83 01:00:09 371 COITOUX DAVID V1M 33 M 81 COURIR A MEYREUIL14.26
84 01:00:11 421 LONGO GILBERT V2M 7 M 82 14.26
85 01:00:15 595 DAMORE RAPHAEL SEM 33 M 83 14.24
86 01:00:18 29 BANON ARNAUD SEM 34 M 84 AIX ATHLE PROVENCE14.23
87 01:00:20 31 DORI SEBASTIEN SEM 35 M 85 AIX ATHLE PROVENCE14.22
88 01:00:23 651 FERNANDEZ THOMAS SEM 36 M 86 14.21
89 01:00:29 190 COPPET JEAN-MICHEL V1M 34 M 87 OM ATHLETISME14.19
90 01:00:30 177 MATRULLO BERNARD V1M 35 M 88 14.18
91 01:00:42 554 CHARPENTIER GERARD V2M 8 M 89 GROUPE DES EAUX DE MARSEILLE14.14
92 01:00:45 272 BARILE DOMINIQUE V2F 1 F 3 CEF MARATHONIEN9.90
93 01:00:48 654 FILALI MUSTAPHA SEM 37 M 90 KM 42.195 MARSEILLE9.90
94 01:00:51 18 DURTESTE GEOFFREY SEM 38 M 91 9.90
95 01:01:06 994 THIBAULT CYRIL SEM 39 M 92 9.90
96 01:01:06 916 RAEPPEL JEAN-PIERRE V1M 36 M 93 AS CARNOUX JOGGING9.90
97 01:01:10 543 CANESSA ALAIN V3M 3 M 94 9.90
98 01:01:12 835 MERK FABRICE SEM 40 M 95 AS COEUR A COEUR9.90
99 01:01:17 313 VULLO MAXIME ESM 8 M 96 14.00
100 01:01:20 846 MONDOU NICOLAS SEM 41 M 97 MASSILIA TRIATHLON13.99
101 01:01:22 763 LE-QUENTREC ALICE SEF 1 F 4 13.98